KORONAS-FOTON

Last updated on Sun Jun 21 2026 00:02:16 GMT+0000 (Coordinated Universal Time)

1 33504U 09003A 26171.44475332 .00010047 00000+0 20622-3 0 9992 2 33504 82.4290 168.8611 0011982 137.0460 223.1726 15.45780361961600
UTC large
Height (km)
Speed (km/s)
/
Latitude / Longitude
Inclination (degrees)
Orbital Period (minutes)
Azimuth
Elevation
Range (km)
Doppler Factor

Next 0 passes for location: London (51.5072 / 0.1276)

No passes found over London.
KORONAS-FOTON